N0ICQ Weather Reports


time (UTC)temp
F
wind
direction
speed
knots
gust
knots
rain 1hr
in
rain 24hr
in
rain mn
in
humidity
%
barometer
mb
20260906191048 67 238 9.6 0.0 0.00 0.00 0.20 93 1013.1
20260906190535 67 173 10.4 0.0 0.00 0.00 0.19 93 1013.1
20260906190055 67 126 8.7 0.0 0.00 0.00 0.18 93 1013.5
20260906185537 67 119 6.1 0.0 0.00 0.00 0.15 93 1013.5
20260906185059 67 117 5.2 0.0 0.00 0.00 0.14 93 1013.5
20260906185002 67 128 5.2 0.0 0.00 0.00 0.14 93 1013.5
20260906184541 67 145 7.0 0.0 0.00 0.00 0.14 92 1012.6
20260906184011 67 148 9.6 0.0 0.00 0.00 0.14 92 1012.6
20260906183546 67 153 12.2 0.0 0.00 0.00 0.13 92 1012.6
20260906183016 67 134 14.8 0.0 0.00 0.00 0.13 92 1012.9
20260906182553 67 133 15.6 0.0 0.00 0.00 0.13 92 1012.9
20260906182019 68 360 14.8 0.0 0.00 0.00 0.12 92 1012.9
20260906181554 69 130 15.6 0.0 0.00 0.00 0.09 91 1013.0
20260906181034 70 164 16.5 0.0 0.00 0.00 0.07 92 1013.0
20260906180515 71 194 13.0 0.0 0.00 0.00 0.05 91 1013.0
20260906175531 73 197 12.2 0.0 0.00 0.00 0.03 92 1012.6
20260906175053 74 141 13.0 0.0 0.00 0.00 0.02 92 1012.6
20260906174535 75 130 11.3 0.0 0.00 0.00 0.01 91 1012.5
20260906174058 76 123 8.7 0.0 0.00 0.00 0.00 91 1012.5
20260906173542 76 122 8.7 0.0 0.00 0.00 0.00 90 1012.5
20260906173059 77 122 9.6 0.0 0.00 0.00 0.00 90 1012.6
20260906172529 76 134 8.7 0.0 0.00 0.00 0.00 90 1012.6
20260906172017 77 145 7.8 0.0 0.00 0.00 0.00 90 1012.6
20260906171557 77 142 8.7 0.0 0.00 0.00 0.00 90 1012.4
20260906171030 77 137 7.8 0.0 0.00 0.00 0.00 90 1012.4
20260906170514 77 147 8.7 0.0 0.00 0.00 0.00 90 1012.4
20260906170045 77 144 8.7 0.0 0.00 0.00 0.00 90 1012.3
20260906165513 77 126 8.7 0.0 0.00 0.00 0.00 89 1012.3
20260906165044 77 130 10.4 0.0 0.00 0.00 0.00 89 1012.3
20260906164513 78 146 10.4 0.0 0.00 0.00 0.00 89 1011.7
20260906164049 78 158 9.6 0.0 0.00 0.00 0.00 89 1011.7
20260906163514 77 158 7.8 0.0 0.00 0.00 0.00 90 1011.7
20260906163101 77 167 7.8 0.0 0.00 0.00 0.00 91 1011.6
20260906162519 77 134 8.7 0.0 0.00 0.00 0.00 91 1011.6
20260906162054 77 153 8.7 0.0 0.00 0.00 0.00 91 1011.6
20260906161536 77 139 8.7 0.0 0.00 0.00 0.00 92 1011.5
20260906161056 76 143 9.6 0.0 0.00 0.00 0.00 92 1011.5
20260906160532 76 142 8.7 0.0 0.00 0.00 0.00 92 1011.5
20260906160028 77 162 7.8 0.0 0.00 0.00 0.00 93 1011.5
20260906155546 76 159 7.0 0.0 0.00 0.00 0.00 93 1011.5
20260906155027 76 146 7.0 0.0 0.00 0.00 0.00 94 1011.5
20260906154547 76 151 7.8 0.0 0.00 0.00 0.00 94 1011.5
20260906154030 76 150 7.8 0.0 0.00 0.00 0.00 95 1011.5
20260906153546 76 142 7.0 0.0 0.00 0.00 0.00 95 1011.5
20260906153032 76 160 7.0 0.0 0.00 0.00 0.00 96 1011.5
20260906152508 75 134 7.0 0.0 0.00 0.00 0.00 96 1011.5
20260906152047 76 159 7.0 0.0 0.00 0.00 0.00 96 1011.5
20260906151515 75 140 7.0 0.0 0.00 0.00 0.00 97 1011.3
20260906151036 75 144 7.8 0.0 0.00 0.00 0.00 97 1011.3
20260906150521 75 130 7.0 0.0 0.00 0.00 0.00 97 1011.3
20260906150110 75 146 7.0 0.0 0.00 0.00 0.00 97 1011.4
20260906145520 75 150 7.8 0.0 0.00 0.00 0.00 97 1011.4
20260906145058 75 132 7.0 0.0 0.00 0.00 0.00 97 1011.4
20260906145002 75 136 7.0 0.0 0.00 0.00 0.00 97 1011.4
20260906144522 75 135 7.0 0.0 0.00 0.00 0.00 97 1011.3
20260906144043 75 148 6.1 0.0 0.00 0.00 0.00 97 1011.3
20260906143522 75 152 5.2 0.0 0.00 0.00 0.00 97 1011.3
20260906143051 75 133 5.2 0.0 0.00 0.00 0.00 98 1011.3
20260906142524 75 156 6.1 0.0 0.00 0.00 0.00 97 1011.3
20260906142007 74 157 6.1 0.0 0.00 0.00 0.00 97 1011.3
20260906141547 74 130 6.1 0.0 0.00 0.00 0.00 97 1011.1
20260906141023 74 146 6.1 0.0 0.00 0.00 0.00 97 1011.1
20260906140507 74 138 5.2 0.0 0.00 0.00 0.00 97 1011.1
20260906140030 74 126 5.2 0.0 0.00 0.00 0.00 97 1011.2
20260906135508 74 119 6.1 0.0 0.00 0.00 0.00 97 1011.2
20260906135032 74 123 6.1 0.0 0.00 0.00 0.00 97 1011.2
20260906134512 74 121 5.2 0.0 0.00 0.00 0.00 97 1011.4
20260906134039 74 131 5.2 0.0 0.00 0.00 0.00 97 1011.4
20260906133521 74 127 5.2 0.0 0.00 0.00 0.00 97 1011.4
20260906133112 74 119 4.3 0.0 0.00 0.00 0.00 97 1011.7
20260906132538 73 125 4.3 0.0 0.00 0.00 0.00 97 1011.7
20260906132012 73 132 4.3 0.0 0.00 0.00 0.00 97 1011.7
20260906131535 73 128 4.3 0.0 0.00 0.00 0.00 97 1011.5
20260906131012 73 130 4.3 0.0 0.00 0.00 0.00 97 1011.5
20260906130534 73 149 4.3 0.0 0.00 0.00 0.00 97 1011.5
20260906130016 73 143 4.3 0.0 0.00 0.00 0.00 97 1011.3
20260906125541 73 136 4.3 0.0 0.00 0.00 0.00 97 1011.3
20260906125023 73 134 4.3 0.0 0.00 0.00 0.00 97 1011.3
20260906124546 73 123 5.2 0.0 0.00 0.00 0.00 97 1011.2
20260906124011 73 128 5.2 0.0 0.00 0.00 0.00 97 1011.2
20260906123546 73 119 5.2 0.0 0.00 0.00 0.00 97 1011.2
20260906123013 73 119 5.2 0.0 0.00 0.00 0.00 97 1011.1
20260906122548 73 117 5.2 0.0 0.00 0.00 0.00 97 1011.1
20260906122017 73 117 5.2 0.0 0.00 0.00 0.00 97 1011.1
20260906121554 73 113 4.3 0.0 0.00 0.00 0.00 97 1010.5
20260906121022 73 112 4.3 0.0 0.00 0.00 0.00 97 1010.5
20260906120601 73 110 4.3 0.0 0.00 0.00 0.00 97 1010.5
20260906120505 72 105 4.3 0.0 0.00 0.00 0.00 97 1010.5
20260906120031 73 109 4.3 0.0 0.00 0.00 0.00 97 1010.3
20260906115558 72 114 4.3 0.0 0.00 0.00 0.00 97 1010.3
20260906115507 72 115 4.3 0.0 0.00 0.00 0.00 97 1010.3
20260906115044 72 108 5.2 0.0 0.00 0.00 0.00 97 1010.3
20260906114536 72 114 5.2 0.0 0.00 0.00 0.00 97 1010.2
20260906114008 72 116 5.2 0.0 0.00 0.00 0.00 97 1010.2
20260906113528 72 110 4.3 0.0 0.00 0.00 0.00 97 1010.2
20260906113012 72 109 5.2 0.0 0.00 0.00 0.00 97 1010.2
20260906112548 72 109 5.2 0.0 0.00 0.00 0.00 97 1010.2
20260906112017 72 108 4.3 0.0 0.00 0.00 0.00 97 1010.2
20260906111609 73 109 4.3 0.0 0.00 0.00 0.00 97 1010.1
20260906111020 73 110 4.3 0.0 0.00 0.00 0.00 97 1010.1
20260906110558 73 110 5.2 0.0 0.00 0.00 0.00 97 1010.1
20260906110025 73 110 4.3 0.0 0.00 0.00 0.00 97 1010.1
20260906105506 73 100 4.3 0.0 0.00 0.00 0.00 97 1010.1
20260906105034 73 94 5.2 0.0 0.00 0.00 0.00 97 1010.1
20260906104521 73 98 4.3 0.0 0.00 0.00 0.00 97 1010.1
20260906104040 73 101 4.3 0.0 0.00 0.00 0.00 97 1010.1
20260906103508 73 107 4.3 0.0 0.00 0.00 0.00 97 1010.1
20260906103051 73 97 4.3 0.0 0.00 0.00 0.00 97 1010.1
20260906102519 73 101 4.3 0.0 0.00 0.00 0.00 97 1010.1
20260906102054 73 112 4.3 0.0 0.00 0.00 0.00 97 1010.1
20260906101523 73 119 4.3 0.0 0.00 0.00 0.00 97 1009.9
20260906101054 73 115 5.2 0.0 0.00 0.00 0.00 97 1009.9
20260906100518 72 123 6.1 0.0 0.00 0.00 0.00 97 1009.9
20260906100057 72 120 6.1 0.0 0.00 0.00 0.00 97 1009.9
20260906095531 72 120 6.1 0.0 0.00 0.00 0.00 97 1009.9
20260906095100 72 119 6.1 0.0 0.00 0.00 0.00 97 1009.9
20260906095002 72 116 6.1 0.0 0.00 0.00 0.00 97 1009.9
20260906094541 72 115 6.1 0.0 0.00 0.00 0.00 97 1010.0
20260906094024 72 123 6.1 0.0 0.00 0.00 0.00 97 1010.0
20260906093544 72 115 6.1 0.0 0.00 0.00 0.00 97 1010.0
20260906093028 72 113 5.2 0.0 0.00 0.00 0.00 97 1010.2
20260906092549 72 119 4.3 0.0 0.00 0.00 0.00 97 1010.2
20260906092028 72 128 4.3 0.0 0.00 0.00 0.00 97 1010.2
20260906091519 72 126 4.3 0.0 0.00 0.00 0.00 97 1010.1
20260906091035 72 123 4.3 0.0 0.00 0.00 0.00 97 1010.1
20260906090512 72 126 4.3 0.0 0.00 0.00 0.00 97 1010.1
20260906090036 72 119 4.3 0.0 0.00 0.00 0.00 97 1009.8
20260906085510 72 106 5.2 0.0 0.00 0.00 0.00 97 1009.8
20260906085040 72 109 6.1 0.0 0.00 0.00 0.00 97 1009.8
20260906084525 72 105 6.1 0.0 0.00 0.00 0.00 97 1009.7
20260906084047 72 111 6.1 0.0 0.00 0.00 0.00 96 1009.7
20260906083529 72 110 6.1 0.0 0.00 0.00 0.00 96 1009.7
20260906083006 72 115 5.2 0.0 0.00 0.00 0.00 96 1009.6
20260906082542 72 115 5.2 0.0 0.00 0.00 0.00 96 1009.6
20260906082024 71 104 5.2 0.0 0.00 0.00 0.00 96 1009.6
20260906081549 71 108 4.3 0.0 0.00 0.00 0.00 96 1009.7
20260906081014 71 96 4.3 0.0 0.00 0.00 0.00 96 1009.7
20260906080556 71 111 4.3 0.0 0.00 0.00 0.00 96 1009.7
20260906080024 70 105 3.5 0.0 0.00 0.00 0.00 96 1009.6
20260906075508 70 92 2.6 0.0 0.00 0.00 0.00 96 1009.6
20260906075032 69 102 0.9 0.0 0.00 0.00 0.00 96 1009.6
20260906074509 69 112 0.0 0.0 0.00 0.00 0.00 96 1009.7
20260906074040 69 112 1.7 0.0 0.00 0.00 0.00 95 1009.7
20260906073556 69 112 2.6 0.0 0.00 0.00 0.00 95 1009.7
20260906073040 69 114 2.6 0.0 0.00 0.00 0.00 95 1009.6
20260906072600 69 119 2.6 0.0 0.00 0.00 0.00 95 1009.6
20260906072509 69 119 3.5 0.0 0.00 0.00 0.00 95 1009.6
20260906072046 70 120 4.3 0.0 0.00 0.00 0.00 95 1009.6
20260906071512 70 124 5.2 0.0 0.00 0.00 0.00 95 1010.1
20260906071050 70 122 4.3 0.0 0.00 0.00 0.00 95 1010.1
20260906070511 69 138 4.3 0.0 0.00 0.00 0.00 96 1010.1
20260906070046 69 130 3.5 0.0 0.00 0.00 0.00 94 1010.3
20260906065534 69 123 3.5 0.0 0.00 0.00 0.00 94 1010.3
20260906065055 69 123 3.5 0.0 0.00 0.00 0.00 94 1010.3
20260906064538 69 120 4.3 0.0 0.00 0.00 0.00 93 1010.4
20260906064019 69 111 4.3 0.0 0.00 0.00 0.00 93 1010.4
20260906063550 69 109 5.2 0.0 0.00 0.00 0.00 93 1010.4
20260906063034 70 107 5.2 0.0 0.00 0.00 0.00 93 1010.4
20260906062557 70 101 4.3 0.0 0.00 0.00 0.00 93 1010.4
20260906062042 70 95 4.3 0.0 0.00 0.00 0.00 93 1010.4
20260906061512 70 86 4.3 0.0 0.00 0.00 0.00 93 1010.6
20260906061050 70 82 4.3 0.0 0.00 0.00 0.00 93 1010.6
20260906060512 70 76 3.5 0.0 0.00 0.00 0.00 93 1010.6
20260906060037 70 67 4.3 0.0 0.00 0.00 0.00 93 1010.8
20260906055516 70 74 4.3 0.0 0.00 0.00 0.00 93 1010.8
20260906055038 69 84 4.3 0.0 0.00 0.00 0.00 93 1010.8
20260906054535 69 81 4.3 0.0 0.00 0.00 0.00 92 1010.9
20260906054044 69 80 3.5 0.0 0.00 0.00 0.00 92 1010.9
20260906053524 69 86 1.7 0.0 0.00 0.00 0.00 91 1010.9
20260906053013 69 121 1.7 0.0 0.00 0.00 0.00 91 1010.5
20260906052548 69 121 2.6 0.0 0.00 0.00 0.00 91 1010.5
20260906052020 69 121 3.5 0.0 0.00 0.00 0.00 91 1010.5
20260906051608 70 121 3.5 0.0 0.00 0.00 0.00 91 1010.7
20260906051036 70 128 4.3 0.0 0.00 0.00 0.00 91 1010.7
20260906050514 70 126 4.3 0.0 0.00 0.00 0.00 90 1010.7
20260906050050 70 123 4.3 0.0 0.00 0.00 0.00 90 1010.4
20260906045525 71 120 5.2 0.0 0.00 0.00 0.00 90 1010.4
20260906045103 71 125 4.3 0.0 0.00 0.00 0.00 90 1010.4
20260906045007 71 126 4.3 0.0 0.00 0.00 0.00 90 1010.4
20260906044552 71 132 4.3 0.0 0.00 0.00 0.00 90 1010.4
20260906044011 71 142 4.3 0.0 0.00 0.00 0.00 90 1010.4
20260906043548 71 142 4.3 0.0 0.00 0.00 0.00 90 1010.4
20260906043017 71 134 5.2 0.0 0.00 0.00 0.00 90 1010.4
20260906042549 71 142 5.2 0.0 0.00 0.00 0.00 89 1010.4
20260906042014 71 126 5.2 0.0 0.00 0.00 0.00 89 1010.4
20260906041553 72 133 5.2 0.0 0.00 0.00 0.00 89 1010.7
20260906041020 72 136 6.1 0.0 0.00 0.00 0.00 89 1010.7
20260906040552 72 141 6.1 0.0 0.00 0.00 0.00 89 1010.7
20260906040023 72 142 5.2 0.0 0.00 0.00 0.08 89 1010.6
20260906035541 72 138 6.1 0.0 0.00 0.00 0.08 89 1010.6
20260906035009 72 134 6.1 0.0 0.00 0.00 0.08 89 1010.6
20260906034558 72 130 6.1 0.0 0.00 0.00 0.08 89 1010.7
20260906034016 71 130 5.2 0.0 0.00 0.00 0.08 88 1010.7
20260906033554 71 132 5.2 0.0 0.00 0.00 0.08 88 1010.7
20260906033044 71 134 4.3 0.0 0.00 0.00 0.08 88 1010.7
20260906032510 71 142 4.3 0.0 0.00 0.00 0.08 87 1010.7
20260906032051 72 153 5.2 0.0 0.00 0.00 0.08 87 1010.7
20260906031518 72 134 4.3 0.0 0.00 0.00 0.08 87 1010.8
20260906031057 72 148 4.3 0.0 0.00 0.00 0.08 86 1010.8
20260906030521 72 138 5.2 0.0 0.00 0.00 0.08 86 1010.8
20260906030002 72 144 5.2 0.0 0.00 0.00 0.08 85 1010.5
20260906025528 72 137 5.2 0.0 0.00 0.00 0.08 85 1010.5
20260906025007 72 142 5.2 0.0 0.00 0.00 0.08 85 1010.5
20260906024531 72 144 6.1 0.0 0.00 0.00 0.08 84 1010.5
20260906024014 73 134 6.1 0.0 0.00 0.00 0.08 84 1010.5
20260906023535 73 133 6.1 0.0 0.00 0.00 0.08 84 1010.5
20260906023014 72 127 6.1 0.0 0.00 0.00 0.08 84 1010.3
20260906022558 72 130 6.1 0.0 0.00 0.00 0.08 84 1010.3
20260906022023 72 139 6.1 0.0 0.00 0.00 0.08 84 1010.3
20260906021601 72 123 5.2 0.0 0.00 0.00 0.08 84 1010.4
20260906021504 72 126 5.2 0.0 0.00 0.00 0.08 84 1010.4
20260906021030 72 127 5.2 0.0 0.00 0.00 0.08 83 1010.4
20260906020510 73 124 5.2 0.0 0.00 0.00 0.08 82 1010.4
20260906020045 73 126 5.2 0.0 0.00 0.00 0.08 82 1010.4
20260906015530 73 126 6.1 0.0 0.00 0.00 0.08 82 1010.4
20260906015051 73 130 5.2 0.0 0.00 0.00 0.08 81 1010.4
20260906014531 73 123 5.2 0.0 0.00 0.00 0.08 81 1010.3
20260906014006 74 124 5.2 0.0 0.00 0.00 0.08 79 1010.3
20260906013548 74 121 6.1 0.0 0.00 0.00 0.08 79 1010.3
20260906013034 75 124 7.0 0.0 0.00 0.00 0.08 78 1010.3
20260906012511 75 117 7.8 0.0 0.00 0.00 0.08 78 1010.3
20260906012052 75 123 7.0 0.0 0.00 0.00 0.08 78 1010.3
20260906011533 75 123 7.0 0.0 0.00 0.00 0.08 78 1010.3
20260906011014 75 125 6.1 0.0 0.00 0.00 0.08 78 1010.3
20260906010538 75 126 6.1 0.0 0.00 0.00 0.08 78 1010.3
20260906010020 75 124 6.1 0.0 0.00 0.00 0.08 78 1010.2
20260906005545 76 126 6.1 0.0 0.00 0.00 0.08 78 1010.2
20260906005031 76 127 5.2 0.0 0.00 0.00 0.08 77 1010.2
20260906004551 76 119 5.2 0.0 0.00 0.00 0.08 75 1009.8
20260906004017 77 121 6.1 0.0 0.00 0.00 0.08 74 1009.8
20260906003552 78 110 7.0 0.0 0.00 0.00 0.08 73 1009.8
20260906003023 79 113 7.0 0.0 0.00 0.00 0.08 71 1009.7
20260906002506 79 116 7.8 0.0 0.00 0.00 0.08 69 1009.7
20260906002044 80 116 8.7 0.0 0.00 0.00 0.08 68 1009.7
20260906001525 81 111 9.6 0.0 0.00 0.00 0.08 67 1009.5
20260906001100 81 108 9.6 0.0 0.00 0.00 0.08 66 1009.5
20260906001006 81 120 9.6 0.0 0.00 0.00 0.08 66 1009.5
20260906000550 81 109 10.4 0.0 0.00 0.00 0.08 66 1009.5
20260906000013 82 128 10.4 0.0 0.00 0.00 0.08 65 1009.3
20260905235538 82 116 11.3 0.0 0.00 0.00 0.08 65 1009.3
20260905235017 82 120 11.3 0.0 0.00 0.00 0.08 64 1009.3
20260905234544 82 115 10.4 0.0 0.00 0.00 0.08 64 1009.2
20260905234100 82 121 12.2 0.0 0.00 0.00 0.08 64 1009.2
20260905234010 82 117 12.2 0.0 0.00 0.00 0.08 64 1009.2
20260905233544 82 102 13.0 0.0 0.00 0.00 0.08 64 1009.2
20260905233010 83 107 13.9 0.0 0.00 0.00 0.08 65 1008.9
20260905232548 83 110 13.0 0.0 0.00 0.00 0.08 65 1008.9
20260905232027 83 109 12.2 0.0 0.00 0.00 0.08 66 1008.9
20260905231605 84 107 13.0 0.0 0.00 0.00 0.08 66 1008.7
20260905231517 84 111 13.0 0.0 0.00 0.00 0.08 66 1008.7
20260905231048 84 121 13.0 0.0 0.00 0.00 0.08 65 1008.7
20260905230514 84 113 13.0 0.0 0.00 0.00 0.08 66 1008.7
20260905230038 84 105 13.0 0.0 0.00 0.00 0.08 65 1008.7
20260905225525 84 107 13.9 0.0 0.00 0.00 0.08 65 1008.7
20260905225014 85 102 13.9 0.0 0.00 0.00 0.08 64 1008.7
20260905224609 85 107 13.0 0.0 0.00 0.00 0.08 63 1008.7
20260905224031 86 110 12.2 0.0 0.00 0.00 0.08 61 1008.7
20260905223548 86 103 12.2 0.0 0.00 0.00 0.08 59 1008.7
20260905223040 87 119 12.2 0.0 0.00 0.00 0.08 58 1008.8
20260905222557 87 101 10.4 0.0 0.00 0.00 0.08 57 1008.8
20260905222037 88 92 10.4 0.0 0.00 0.00 0.08 57 1008.8
20260905221520 88 100 11.3 0.0 0.00 0.00 0.08 55 1008.5
20260905221051 88 107 11.3 0.0 0.00 0.00 0.08 56 1008.5
20260905220534 88 96 10.4 0.0 0.00 0.00 0.08 55 1008.5
20260905220057 88 102 10.4 0.0 0.00 0.00 0.08 55 1008.5
20260905215523 88 87 10.4 0.0 0.00 0.00 0.08 56 1008.5
20260905215100 88 93 10.4 0.0 0.00 0.00 0.08 54 1008.5
20260905214547 89 85 11.3 0.0 0.00 0.00 0.08 53 1008.4
20260905214031 89 103 10.4 0.0 0.00 0.00 0.08 53 1008.4
20260905213554 89 76 10.4 0.0 0.00 0.00 0.08 53 1008.4
20260905213041 89 112 11.3 0.0 0.00 0.00 0.08 50 1008.5
20260905212556 89 129 13.0 0.0 0.00 0.00 0.08 48 1008.5
20260905212024 89 128 11.3 0.0 0.00 0.00 0.08 49 1008.5
20260905211511 89 109 11.3 0.0 0.00 0.00 0.08 50 1008.4
20260905211038 89 123 11.3 0.0 0.00 0.00 0.08 50 1008.4
20260905210522 88 123 10.4 0.0 0.00 0.00 0.08 50 1008.4
20260905210051 88 110 12.2 0.0 0.00 0.00 0.08 51 1008.6
20260905205524 88 107 12.2 0.0 0.00 0.00 0.08 51 1008.6
20260905205047 88 113 11.3 0.0 0.00 0.00 0.08 51 1008.6
20260905204531 89 127 11.3 0.0 0.00 0.00 0.08 51 1008.4
20260905204050 89 128 12.2 0.0 0.00 0.00 0.08 49 1008.4
20260905203534 89 113 11.3 0.0 0.00 0.00 0.08 51 1008.4
20260905203055 88 124 11.3 0.0 0.00 0.00 0.08 50 1008.5
20260905202535 88 107 11.3 0.0 0.00 0.00 0.08 51 1008.5
20260905202019 88 117 11.3 0.0 0.00 0.00 0.08 51 1008.5
20260905201546 88 112 11.3 0.0 0.00 0.00 0.08 51 1008.5
20260905201024 88 107 11.3 0.0 0.00 0.00 0.08 51 1008.5
20260905200600 88 109 11.3 0.0 0.00 0.00 0.08 51 1008.5
20260905200507 88 108 11.3 0.0 0.00 0.00 0.08 52 1008.5
20260905200028 87 124 10.4 0.0 0.00 0.00 0.08 51 1008.4
20260905195506 87 103 9.6 0.0 0.00 0.00 0.08 55 1008.4
20260905195030 87 117 9.6 0.0 0.00 0.00 0.08 56 1008.4
20260905194508 87 101 10.4 0.0 0.00 0.00 0.08 54 1008.3
20260905194048 87 105 9.6 0.0 0.00 0.00 0.08 54 1008.3
20260905193510 86 113 7.8 0.0 0.00 0.00 0.08 54 1008.3
20260905193046 86 112 8.7 0.0 0.00 0.00 0.08 57 1008.4
20260905192530 86 101 8.7 0.0 0.00 0.00 0.08 57 1008.4
20260905192017 85 116 8.7 0.0 0.00 0.00 0.08 58 1008.4
20260905191546 85 79 9.6 0.0 0.00 0.00 0.08 59 1008.6